Location: Astronomy Club of Akron Observatory
(40.9700°N, 81.5606°W)
Time: 12:16:38
(UTC-04:00)

Hubble Space Telescope - Pass Details

Date: 16 June 2018
Orbit: 537 x 541 km, 28.5° (Epoch: 22 October)

Event Time Altitude Azimuth Distance (km) Brightness Sun altitude
Rises 22:47:04 0° 244° (WSW) 2,671 4.5 -15.7°
Reaches altitude 10° 22:50:46 10° 211° (SSW) 1,778 3.2 -16.1°
Enters shadow 22:51:13 11° 205° (SSW) 1,727 3.1 -16.2°
